Terug naar catalogus

STARLINK-3055

ActiefCommunicatieVLEO
NORAD 49137·PAYLOAD·🇺🇸 United States

Gelanceerd Sep 14, 2021 vanaf Vandenberg Space Force Base

Loading…

Volgende Passages (komende 24 uur)

TLE

VersSource: CelesTrak SupGP

Epoch: Sep 14, 2026, 13:59 UTC

1 49137C 21082H   26257.58312500  .00070824  00000+0  60611-2 0  2576
2 49137  70.0010 159.5741 0002793 268.3327 110.8016 14.97483431    10

Volg STARLINK-3055 in realtime met AllMySat

Download on the App Store